[[{"header":{"parameterUnit":"m.s-1","parameterCategory":1,"la1":30.2991,"la2":30.254,"lo1":-89.0895,"lo2":-89.0444,"dy":0.0017,"dx":0.0017,"nx":28,"ny":28,"refTime":"2025-07-25T03:00:00:Z","depth":0,"parameterNumber":2,"parameterNumberName":"U-component_of_WINDS"},"data":[0,0,0,0,0,0,0,0,0,0,0,0,0,0,0,0,0,0,0,0,0,0,0,0,0,0,0,0,0,0,0,0,0,0,0,0,0,0,0,0,0,0,0,0,0,0,0,0,0,0,0,0,0,0,0,0,0,0,0.0446,0.0446,0,0.0438,0.0437,0.0437,0.0395,0.0394,0.0393,0.0392,0.0385,0.0385,0.0386,0,0,0,0,0,0,0,0,0,0,0,0,0,0.0425,0.0426,0.0446,0.0446,0.0446,0.0438,0.0437,0.0437,0.0395,0.0394,0.0393,0.0391,0.0385,0.0385,0.0386,0,0,0,0,0,0,0,0,0,0,0,0,0,0.0427,0.0426,0.0446,0.0423,0.0421,0.0438,0.0437,0.0437,0.0395,0.0394,0.0392,0.0391,0.0384,0.0385,0.0386,0.0424,0,0,0.039,0.039,0,0,0,0,0,0,0,0,0.0427,0.0428,0.0427,0.0425,0.0423,0.0416,0.0427,0.0433,0.0396,0.0405,0.0392,0.039,0.0396,0.0396,0.0398,0.0424,0.0423,0.039,0.0391,0.0391,0.0392,0,0,0,0,0,0,0,0.0427,0.0428,0.0443,0.0427,0.0424,0.0414,0.0413,0.0428,0.0409,0.0404,0.0401,0.0401,0.0395,0.0397,0.0398,0.0423,0.039,0.0391,0.0392,0.0392,0.0477,0.0479,0,0,0,0,0,0,0.043,0.0428,0.0443,0.0442,0.0421,0.0415,0.0414,0.0419,0.0409,0.0406,0.0402,0.0399,0.0396,0.0396,0.0397,0.044,0.0391,0.0392,0.0393,0.0476,0.0478,0.0479,0,0,0,0,0,0,0.043,0.0432,0.0443,0.0434,0.0435,0.0417,0.0424,0.042,0.0422,0.0407,0.0404,0.0408,0.0395,0.0396,0.0417,0.0439,0.0393,0.0394,0.0474,0.0476,0.0479,0.0526,0,0,0,0,0,0,0.0429,0.0432,0.0446,0.0435,0.0436,0.0463,0.0425,0.0421,0.0424,0.042,0.0412,0.0409,0.0394,0.0416,0.0418,0.044,0.0395,0.0472,0.0475,0.0478,0.0522,0.0529,0.0536,0,0,0,0,0,0.0429,0.046,0.0447,0.0449,0.0453,0.0465,0.0465,0.0446,0.0426,0.044,0.043,0.0409,0.0436,0.0418,0.0421,0.0443,0.047,0.0474,0.0478,0.0519,0.0528,0.0535,0,0,0,0,0,0,0.0475,0.0458,0.0444,0.0472,0.047,0.0458,0.0475,0.0456,0.046,0.0456,0.0433,0.0431,0.0456,0.0452,0.0432,0.0478,0.045,0.0454,0.048,0.0488,0.0495,0.0496,0.0396,0,0,0,0,0,0.0489,0.0499,0.0484,0.0511,0.0511,0.0493,0.0497,0.0483,0.048,0.0479,0.047,0.0469,0.0476,0.0482,0.0488,0.0521,0.0518,0.0537,0.0544,0.0549,0.0554,0.0569,0.0577,0.0491,0.0491,0.0491,0,0,0.0517,0.0509,0.0517,0.052,0.0517,0.0528,0.0493,0.0507,0.0515,0.0481,0.0501,0.0494,0.049,0.0517,0.0529,0.0514,0.0577,0.0554,0.0559,0.056,0.0574,0.0582,0.0589,0.0494,0.0493,0.0493,0,0,0.0574,0.057,0.0591,0.0588,0.0582,0.057,0.0575,0.0565,0.0559,0.0578,0.0553,0.0562,0.0576,0.0574,0.0575,0.063,0.0611,0.0632,0.0668,0.0684,0.069,0.0696,0.0716,0.0723,0.0637,0.0637,0.0637,0,0.0611,0.0626,0.0604,0.062,0.0621,0.059,0.0611,0.0609,0.0607,0.0609,0.0592,0.0608,0.0604,0.0629,0.0642,0.0644,0.0649,0.0634,0.0691,0.0697,0.0702,0.072,0.0727,0.0639,0.0639,0.0639,0.0638,0,0.0671,0.0682,0.07,0.0697,0.0701,0.0719,0.07,0.0706,0.069,0.068,0.0699,0.0692,0.0696,0.0701,0.0687,0.0724,0.0715,0.0695,0.0666,0.0713,0.073,0.0737,0.0643,0.0642,0.0641,0.0641,0,0,0.0759,0.0742,0.0749,0.0747,0.0738,0.0746,0.0763,0.0766,0.0771,0.077,0.0783,0.0795,0.0776,0.0777,0.0762,0.0776,0.0818,0.0754,0.0753,0.0766,0.0859,0.0874,0.0882,0.0805,0.0806,0.0807,0.0859,0,0.0813,0.084,0.082,0.085,0.086,0.083,0.0844,0.084,0.083,0.0837,0.0826,0.0834,0.0809,0.0809,0.0821,0.0811,0.0837,0.0807,0.0817,0.0818,0.082,0.0891,0.0907,0.0956,0.0865,0.0866,0.0867,0,0.0881,0.0881,0.0913,0.09,0.0904,0.0917,0.0917,0.0924,0.0919,0.091,0.0911,0.0891,0.0906,0.0877,0.0897,0.0877,0.088,0.0875,0.0877,0.0877,0.0846,0.0894,0.0972,0.0979,0.0877,0.0876,0.0876,0,0.0941,0.095,0.0969,0.0969,0.0955,0.0965,0.0959,0.0952,0.0955,0.0955,0.0957,0.0959,0.096,0.0963,0.0944,0.0925,0.0967,0.0936,0.096,0.0961,0.0971,0.0971,0.1051,0.0973,0.0972,0.0972,0.0972,0,0.1005,0.1025,0.0996,0.1008,0.103,0.1006,0.1028,0.1019,0.1013,0.1023,0.0997,0.1006,0.0982,0.0989,0.0975,0.0993,0.0994,0.0988,0.0984,0.099,0.0991,0.0992,0.0988,0.0974,0.0974,0.0973,0.0973,0,0.1076,0.1058,0.1077,0.1062,0.1058,0.1075,0.1062,0.1072,0.106,0.1072,0.1074,0.1055,0.1062,0.1043,0.1048,0.1038,0.1065,0.1055,0.1067,0.1064,0.1089,0.1087,0.1172,0.1182,0.1098,0.1099,0.1099,0,0.1118,0.1133,0.1118,0.1123,0.1119,0.1126,0.1128,0.1105,0.1108,0.1102,0.1113,0.1118,0.112,0.1132,0.1119,0.1122,0.1112,0.1142,0.1113,0.1118,0.1113,0.1112,0.1113,0.1148,0.1149,0.115,0.1151,0,0.1194,0.1184,0.1187,0.1188,0.1191,0.119,0.1188,0.1193,0.1168,0.1173,0.1179,0.1181,0.1184,0.1189,0.1189,0.1183,0.1163,0.116,0.1166,0.1173,0.1179,0.1176,0.1083,0.1159,0.1158,0.1157,0.1157,0.1157,0.1252,0.1263,0.1254,0.1259,0.1254,0.1252,0.1261,0.1249,0.1254,0.1254,0.124,0.1249,0.1242,0.1239,0.1236,0.1243,0.1229,0.1237,0.1239,0.1242,0.1246,0.1177,0.1242,0.1242,0.1242,0.1242,0.1242,0,0.1326,0.1318,0.1323,0.132,0.1323,0.1303,0.1299,0.1303,0.1311,0.1306,0.1308,0.1315,0.1319,0.1305,0.1307,0.1315,0.1306,0.1317,0.1316,0.1315,0.1258,0.1253,0.1324,0.1324,0.1324,0.1324,0.1324,0.1324,0.1365,0.1382,0.1371,0.1386,0.1378,0.1386,0.1385,0.1383,0.1379,0.1387,0.139,0.1381,0.1372,0.1373,0.1375,0.1371,0.1373,0.1387,0.138,0.1327,0.1319,0.1312,0.1307,0.1388,0.1388,0.1436,0.1437,0.1437]},{"header":{"parameterUnit":"m.s-1","parameterCategory":1,"la1":30.2991,"la2":30.254,"lo1":-89.0895,"lo2":-89.0444,"dy":0.0017,"dx":0.0017,"nx":28,"ny":28,"refTime":"2025-07-25T03:00:00:Z","depth":0,"parameterNumber":3,"parameterNumberName":"V-component_of_WINDS"},"data":[0,0,0,0,0,0,0,0,0,0,0,0,0,0,0,0,0,0,0,0,0,0,0,0,0,0,0,0,0,0,0,0,0,0,0,0,0,0,0,0,0,0,0,0,0,0,0,0,0,0,0,0,0,0,0,0,0,0,5.981,5.9812,0,5.9988,5.999,5.9992,5.9957,5.9954,5.9951,5.9948,6.0123,6.013,6.0138,0,0,0,0,0,0,0,0,0,0,0,0,0,5.9431,5.9439,5.981,5.9812,5.9815,5.9987,5.999,5.9992,5.9958,5.9954,5.995,5.9947,6.012,6.0129,6.0138,0,0,0,0,0,0,0,0,0,0,0,0,0,5.9601,5.9441,5.981,5.9819,5.9821,5.9987,5.999,5.9993,5.9959,5.9954,5.9949,5.9945,6.0117,6.0128,6.014,6.0306,0,0,6.0175,6.0179,0,0,0,0,0,0,0,0,5.9591,5.9615,5.9815,5.9818,5.9821,5.9946,5.992,6.0098,5.996,5.9906,5.9948,5.9942,6.0067,6.0082,6.0126,6.0314,6.0321,6.0176,6.0182,6.0187,6.0191,0,0,0,0,0,0,0,5.958,5.9607,5.988,5.9818,5.9822,5.981,5.9829,5.9954,6.0011,5.9911,5.9909,5.993,6.0068,6.0115,6.013,6.0324,6.0175,6.0185,6.0192,6.0197,6.0651,6.0655,0,0,0,0,0,0,5.9566,5.9597,5.9875,5.9886,5.9693,5.9821,5.9842,5.9911,6.001,6.002,5.9934,5.9928,6.0098,6.0117,6.0136,6.0333,6.0187,6.0198,6.0205,6.0645,6.0652,6.0657,0,0,0,0,0,0,5.9558,5.9591,5.9867,5.9741,5.9775,5.9833,5.991,5.9917,5.9964,6.0028,6.0037,5.9973,6.0095,6.012,6.0263,6.0339,6.0203,6.0214,6.0639,6.0647,6.0654,6.0731,0,0,0,0,0,0,5.9548,5.9589,5.9655,5.9743,5.9782,5.9995,5.9915,5.9923,5.9984,5.9978,6.0066,6.0076,6.0093,6.0246,6.0274,6.0352,6.0222,6.0633,6.0643,6.0652,6.0722,6.0741,6.0757,0,0,0,0,0,5.9534,5.9669,5.9659,5.9692,5.9867,6.0,6.0022,6.0041,5.9991,6.0056,6.0096,6.0073,6.0326,6.0261,6.0293,6.0375,6.0628,6.064,6.0651,6.0714,6.0737,6.0756,0,0,0,0,0,0,5.9588,5.9681,5.9671,5.9839,5.9912,5.9994,6.0077,6.0065,6.0152,6.0142,6.0159,6.0179,6.0324,6.0364,6.0289,6.0538,6.0469,6.0488,6.0507,6.0529,6.0546,6.0532,6.0232,0,0,0,0,0,5.962,5.9722,5.9797,5.9938,5.9975,6.002,6.0078,6.0086,6.0161,6.0191,6.0242,6.0314,6.0408,6.0471,6.0562,6.0728,6.0744,6.0799,6.0816,6.083,6.0846,6.0931,6.0955,6.0696,6.0696,6.0695,0,0,5.9686,5.9749,5.9813,5.9951,6.0008,6.011,6.0046,6.0158,6.0233,6.0208,6.0346,6.0385,6.0465,6.0619,6.0689,6.0657,6.0921,6.0845,6.0856,6.0864,6.0945,6.097,6.0992,6.0704,6.0702,6.0701,0,0,5.9858,5.9919,6.0041,6.0099,6.0187,6.0215,6.0244,6.0327,6.0353,6.0492,6.0474,6.0561,6.0726,6.0782,6.0833,6.1021,6.1001,6.105,6.114,6.1222,6.1243,6.1261,6.1324,6.1347,6.1065,6.1066,6.1066,0,5.9929,6.0085,6.0104,6.0217,6.0276,6.0259,6.038,6.0435,6.0547,6.0586,6.0548,6.0752,6.0805,6.0969,6.1015,6.1058,6.1088,6.104,6.1239,6.1257,6.1274,6.1335,6.1359,6.1071,6.107,6.107,6.1069,0,6.0165,6.0273,6.0361,6.047,6.0539,6.0655,6.0688,6.0755,6.0755,6.0786,6.0924,6.0987,6.1089,6.1129,6.1131,6.1292,6.1268,6.1235,6.1166,6.1304,6.1361,6.1385,6.1078,6.1076,6.1075,6.1073,0,0,6.0379,6.0495,6.0526,6.0574,6.0667,6.0749,6.0862,6.0963,6.1018,6.1094,6.1187,6.1324,6.1293,6.135,6.1357,6.143,6.157,6.1387,6.1389,6.1416,6.1746,6.177,6.1797,6.1558,6.1563,6.1566,6.1739,0,6.0557,6.076,6.0778,6.0958,6.1055,6.1038,6.1136,6.1201,6.1232,6.1315,6.1348,6.1444,6.1397,6.143,6.1502,6.1538,6.1636,6.1526,6.164,6.1644,6.1619,6.1827,6.1853,6.2013,6.1761,6.1765,6.1768,0,6.0794,6.0877,6.1068,6.1143,6.1184,6.1273,6.1363,6.1446,6.1517,6.1534,6.1596,6.1592,6.1703,6.1631,6.1782,6.1707,6.1754,6.1778,6.1785,6.1795,6.1713,6.184,6.2065,6.2088,6.1804,6.1801,6.1799,0,6.0925,6.1086,6.1219,6.1261,6.1353,6.1415,6.1455,6.1523,6.1581,6.1659,6.1696,6.1786,6.1834,6.1902,6.1921,6.1868,6.207,6.2001,6.2083,6.2083,6.2126,6.2123,6.2359,6.2161,6.216,6.216,6.2159,0,6.1122,6.1238,6.1279,6.1361,6.1489,6.1507,6.1631,6.1668,6.1727,6.1813,6.1803,6.1882,6.1904,6.1986,6.2001,6.2121,6.2144,6.2158,6.216,6.2158,6.2156,6.2188,6.2176,6.2166,6.2165,6.2163,6.2162,0,6.1291,6.1325,6.1468,6.1543,6.1564,6.1654,6.1717,6.1793,6.1821,6.1929,6.1955,6.1997,6.2093,6.2119,6.2234,6.2243,6.2384,6.2377,6.2361,6.236,6.244,6.2431,6.2704,6.2739,6.2519,6.2521,6.2523,0,6.1414,6.1503,6.1587,6.1644,6.1688,6.178,6.1839,6.1858,6.1918,6.2004,6.2069,6.2164,6.2241,6.2394,6.2433,6.2519,6.2512,6.2602,6.2525,6.2519,6.251,6.2504,6.251,6.2616,6.2618,6.262,6.2622,0,6.1627,6.1637,6.1724,6.1814,6.1885,6.1957,6.2025,6.2072,6.21,6.2168,6.2266,6.2326,6.2442,6.2534,6.2621,6.2659,6.2644,6.2645,6.2669,6.2666,6.2652,6.2657,6.2398,6.2639,6.2637,6.2636,6.2635,6.2634,6.1774,6.1851,6.1921,6.2015,6.2069,6.2132,6.2207,6.2243,6.2326,6.2424,6.2429,6.2534,6.2598,6.2713,6.2755,6.2836,6.2808,6.2843,6.2851,6.2859,6.2864,6.264,6.2852,6.2851,6.2851,6.285,6.285,0,6.1984,6.2027,6.2114,6.221,6.2284,6.2265,6.2338,6.24,6.2494,6.2556,6.2631,6.2742,6.283,6.2875,6.2962,6.3017,6.3012,6.3039,6.3034,6.3042,6.2885,6.2855,6.3041,6.3041,6.3041,6.3041,6.3041,6.3041,6.2101,6.2228,6.2246,6.2397,6.2439,6.2544,6.2587,6.2644,6.2693,6.2818,6.2892,6.2921,6.2974,6.3064,6.3143,6.3153,6.3184,6.3215,6.3221,6.3073,6.3054,6.3035,6.3007,6.3222,6.3222,6.3371,6.3372,6.3373]}]]